TimeMDT,TemperatureF,Dew PointF,Humidity,Sea Level PressureIn,VisibilityMPH,Wind Direction,Wind SpeedMPH,Gust SpeedMPH,PrecipitationIn,Events,Conditions,WindDirDegrees,DateUTC
12:53 AM,45.0,37.0,74,29.61,10.0,SW,6.9,-,N/A,,Clear,230,2012-10-16 06:53:00
1:53 AM,50.0,39.0,66,29.55,10.0,SW,10.4,-,N/A,,Clear,220,2012-10-16 07:53:00
2:53 AM,57.0,39.0,51,29.52,10.0,SW,15.0,-,N/A,,Clear,230,2012-10-16 08:53:00
3:53 AM,59.0,39.0,48,29.44,10.0,SSW,17.3,26.5,0.00,Rain,Light Rain,210,2012-10-16 09:53:00
4:53 AM,55.0,39.0,55,29.42,10.0,SW,10.4,-,0.00,,Mostly Cloudy,220,2012-10-16 10:53:00
5:53 AM,60.8,39.2,45,29.39,10.0,SW,17.3,26.5,N/A,,Clear,230,2012-10-16 11:53:00
6:53 AM,62.1,39.9,44,29.33,10.0,SW,20.7,-,N/A,,Clear,220,2012-10-16 12:53:00
7:53 AM,63.0,39.9,43,29.31,10.0,SW,21.9,27.6,N/A,,Scattered Clouds,220,2012-10-16 13:53:00
8:53 AM,62.1,41.0,46,29.31,10.0,SW,21.9,31.1,N/A,,Overcast,230,2012-10-16 14:53:00
9:53 AM,55.9,44.1,64,29.29,10.0,SW,23.0,31.1,0.00,Rain,Light Rain,220,2012-10-16 15:53:00
10:29 AM,53.6,48.2,82,29.29,10.0,SSW,21.9,26.5,0.00,,Scattered Clouds,200,2012-10-16 16:29:00
10:53 AM,53.1,48.0,83,29.30,10.0,SSW,21.9,-,0.00,,Clear,200,2012-10-16 16:53:00
11:53 AM,55.0,46.0,72,29.26,10.0,SSW,21.9,29.9,N/A,,Partly Cloudy,210,2012-10-16 17:53:00
12:53 PM,59.0,46.9,64,29.27,10.0,WSW,25.3,33.4,N/A,,Partly Cloudy,240,2012-10-16 18:53:00
1:30 PM,59.0,48.2,67,29.27,10.0,WSW,23.0,29.9,N/A,Thunderstorm,Partly Cloudy,240,2012-10-16 19:30:00
1:51 PM,48.2,42.8,82,29.28,7.0,West,16.1,34.5,0.01,Rain-Thunderstorm,Light Thunderstorms and Rain,270,2012-10-16 19:51:00
1:53 PM,48.9,42.1,77,29.29,8.0,West,16.1,32.2,0.01,Rain,Light Rain,260,2012-10-16 19:53:00
2:53 PM,62.1,34.0,35,29.24,10.0,WSW,34.5,47.2,0.00,,Clear,250,2012-10-16 20:53:00
3:53 PM,59.0,30.9,35,29.28,10.0,West,40.3,55.2,N/A,,Clear,260,2012-10-16 21:53:00
4:53 PM,55.9,30.0,37,29.33,10.0,West,33.4,47.2,N/A,,Scattered Clouds,270,2012-10-16 22:53:00
5:53 PM,52.0,37.0,57,29.38,10.0,WNW,20.7,26.5,0.00,Rain,Light Rain,300,2012-10-16 23:53:00
6:53 PM,50.0,36.0,59,29.43,10.0,WNW,24.2,44.9,0.00,Rain,Light Rain,290,2012-10-17 00:53:00
7:53 PM,41.0,37.0,86,29.52,5.0,NW,44.9,58.7,0.00,,Overcast,310,2012-10-17 01:53:00
8:53 PM,41.0,37.0,86,29.58,10.0,NW,25.3,36.8,0.01,,Overcast,310,2012-10-17 02:53:00
9:31 PM,42.8,37.4,81,29.62,10.0,West,16.1,27.6,0.00,,Overcast,280,2012-10-17 03:31:00
9:53 PM,43.0,37.0,80,29.63,10.0,West,18.4,26.5,0.00,,Overcast,270,2012-10-17 03:53:00
10:53 PM,44.1,37.0,76,29.67,10.0,West,19.6,26.5,0.00,,Overcast,270,2012-10-17 04:53:00
11:53 PM,43.0,34.0,71,29.70,10.0,WNW,26.5,40.3,N/A,,Overcast,290,2012-10-17 05:53:00